Time,TemperatureF,DewpointF,PressureIn,WindDirection,WindDirectionDegrees,WindSpeedMPH,WindSpeedGustMPH,Humidity,HourlyPrecipIn,Conditions,Clouds,dailyrainin,SolarRadiationWatts/m^2,SoftwareType,DateUTC
2013-10-12 00:03:00,57.3,53.0,29.97,South,169,0.0,-999.0,86,-99.99,,,0.00,0,weatherlink.com 1.10,2013-10-12 05:03:00,
2013-10-12 00:19:00,56.9,53.0,29.96,SSE,164,0.0,-999.0,87,-99.99,,,0.00,0,weatherlink.com 1.10,2013-10-12 05:19:00,
2013-10-12 00:36:00,56.1,52.0,29.96,SSE,161,0.0,-999.0,87,-99.99,,,0.00,0,weatherlink.com 1.10,2013-10-12 05:36:00,
2013-10-12 00:52:00,55.8,52.0,29.96,SSE,167,2.0,-999.0,88,-99.99,,,0.00,0,weatherlink.com 1.10,2013-10-12 05:52:00,
2013-10-12 01:10:00,56.4,53.0,29.95,South,172,2.0,-999.0,88,-99.99,,,0.00,0,weatherlink.com 1.10,2013-10-12 06:10:00,
2013-10-12 01:26:00,56.4,53.0,29.95,South,191,1.0,-999.0,89,-99.99,,,0.00,0,weatherlink.com 1.10,2013-10-12 06:26:00,
2013-10-12 01:43:00,56.1,53.0,29.95,South,185,1.0,-999.0,88,-99.99,,,0.00,0,weatherlink.com 1.10,2013-10-12 06:43:00,
2013-10-12 02:03:00,56.7,-99.9,29.96,South,175,0.0,-999.0,-999,-99.99,,,0.00,0,weatherlink.com 1.10,2013-10-12 07:03:00,
2013-10-12 02:20:00,56.7,53.0,29.96,South,178,0.0,-999.0,87,-99.99,,,0.00,0,weatherlink.com 1.10,2013-10-12 07:20:00,
2013-10-12 02:36:00,56.6,53.0,29.95,South,179,1.0,-999.0,87,-99.99,,,0.00,0,weatherlink.com 1.10,2013-10-12 07:36:00,
2013-10-12 02:52:00,56.7,53.0,29.95,SW,219,5.0,-999.0,87,-99.99,,,0.00,0,weatherlink.com 1.10,2013-10-12 07:52:00,
2013-10-12 03:10:00,57.7,54.0,29.95,SSW,206,1.0,-999.0,86,-99.99,,,0.00,0,weatherlink.com 1.10,2013-10-12 08:10:00,
2013-10-12 03:26:00,58.7,55.0,29.95,SSW,210,7.0,-999.0,86,-99.99,,,0.00,0,weatherlink.com 1.10,2013-10-12 08:26:00,
2013-10-12 03:43:00,60.0,55.0,29.94,SSW,192,6.0,-999.0,84,-99.99,,,0.00,0,weatherlink.com 1.10,2013-10-12 08:43:00,
2013-10-12 04:04:00,60.8,55.0,29.93,SSW,199,5.0,-999.0,80,-99.99,,,0.00,0,weatherlink.com 1.10,2013-10-12 09:04:00,
2013-10-12 04:23:00,61.2,55.0,29.93,NW,316,0.0,-999.0,79,-99.99,,,0.00,0,weatherlink.com 1.10,2013-10-12 09:23:00,
2013-10-12 04:43:00,61.2,55.0,29.93,SSW,206,3.0,-999.0,79,-99.99,,,0.00,0,weatherlink.com 1.10,2013-10-12 09:43:00,
2013-10-12 05:07:00,60.8,55.0,29.92,SSW,212,0.0,-999.0,80,-99.99,,,0.00,0,weatherlink.com 1.10,2013-10-12 10:07:00,
2013-10-12 05:27:00,60.6,55.0,29.93,SSW,198,0.0,-999.0,81,-99.99,,,0.00,0,weatherlink.com 1.10,2013-10-12 10:27:00,
2013-10-12 05:48:00,60.2,55.0,29.93,SSW,199,0.0,-999.0,82,-99.99,,,0.00,0,weatherlink.com 1.10,2013-10-12 10:48:00,
2013-10-12 06:09:00,59.9,55.0,29.94,SSW,198,0.0,-999.0,83,-99.99,,,0.00,0,weatherlink.com 1.10,2013-10-12 11:09:00,
2013-10-12 06:25:00,59.3,54.0,29.94,SSW,199,1.0,-999.0,84,-99.99,,,0.00,0,weatherlink.com 1.10,2013-10-12 11:25:00,
2013-10-12 06:42:00,59.0,54.0,29.93,ESE,109,0.0,-999.0,85,-99.99,,,0.00,0,weatherlink.com 1.10,2013-10-12 11:42:00,
2013-10-12 06:58:00,58.8,54.0,29.93,ESE,107,0.0,-999.0,85,-99.99,,,0.00,0,weatherlink.com 1.10,2013-10-12 11:58:00,
2013-10-12 07:18:00,58.5,54.0,29.94,ESE,110,0.0,-999.0,86,-99.99,,,0.00,28,weatherlink.com 1.10,2013-10-12 12:18:00,
2013-10-12 07:35:00,58.8,55.0,29.94,South,171,3.0,-999.0,88,-99.99,,,0.00,46,weatherlink.com 1.10,2013-10-12 12:35:00,
2013-10-12 07:53:00,59.6,56.0,29.94,SSW,213,1.0,-999.0,87,-99.99,,,0.00,46,weatherlink.com 1.10,2013-10-12 12:53:00,
2013-10-12 08:14:00,60.2,56.0,29.95,SSW,203,2.0,-999.0,86,-99.99,,,0.00,157,weatherlink.com 1.10,2013-10-12 13:14:00,
2013-10-12 08:32:00,62.5,-99.9,29.95,South,179,7.0,-999.0,-999,-99.99,,,0.00,157,weatherlink.com 1.10,2013-10-12 13:32:00,
2013-10-12 08:50:00,62.8,57.0,29.96,SSW,202,4.0,-999.0,82,-99.99,,,0.00,91,weatherlink.com 1.10,2013-10-12 13:50:00,
2013-10-12 09:12:00,62.3,57.0,29.95,SSW,205,2.0,-999.0,84,-99.99,,,0.00,77,weatherlink.com 1.10,2013-10-12 14:12:00,
2013-10-12 09:29:00,62.5,58.0,29.95,SSW,209,2.0,-999.0,84,-99.99,,,0.00,77,weatherlink.com 1.10,2013-10-12 14:29:00,
2013-10-12 09:46:00,62.5,58.0,29.95,SW,224,6.0,-999.0,84,-99.99,,,0.00,77,weatherlink.com 1.10,2013-10-12 14:46:00,
2013-10-12 10:07:00,63.0,58.0,29.95,SW,226,7.0,-999.0,84,-99.99,,,0.00,113,weatherlink.com 1.10,2013-10-12 15:07:00,
2013-10-12 10:26:00,63.1,58.0,29.95,SW,215,3.0,-999.0,83,-99.99,,,0.00,111,weatherlink.com 1.10,2013-10-12 15:26:00,
2013-10-12 10:45:00,-999.0,-99.9,29.97,North,-999,-999.0,-999.0,-999,-99.99,,,0.00,,weatherlink.com 1.10,2013-10-12 15:45:00,
2013-10-12 11:08:00,64.2,-99.9,29.96,WSW,240,6.0,-999.0,-999,-99.99,,,0.00,49,weatherlink.com 1.10,2013-10-12 16:08:00,
2013-10-12 11:26:00,63.1,59.0,29.97,SW,234,11.0,-999.0,87,-99.99,,,0.16,49,weatherlink.com 1.10,2013-10-12 16:26:00,
2013-10-12 11:48:00,62.7,60.0,29.95,SW,223,3.0,-999.0,92,-99.99,,,0.18,155,weatherlink.com 1.10,2013-10-12 16:48:00,
2013-10-12 12:34:00,63.1,61.0,29.95,SW,236,6.0,-999.0,94,-99.99,,,0.26,65,weatherlink.com 1.10,2013-10-12 17:34:00,
2013-10-12 12:51:00,-999.0,-99.9,29.95,North,-999,-999.0,-999.0,-999,-99.99,,,0.27,,weatherlink.com 1.10,2013-10-12 17:51:00,
2013-10-12 13:10:00,62.8,62.0,29.95,WNW,292,6.0,-999.0,96,-99.99,,,0.28,28,weatherlink.com 1.10,2013-10-12 18:10:00,
2013-10-12 13:27:00,62.8,62.0,29.94,WNW,302,4.0,-999.0,98,-99.99,,,0.35,40,weatherlink.com 1.10,2013-10-12 18:27:00,
2013-10-12 13:44:00,-999.0,-99.9,29.95,North,-999,-999.0,-999.0,-999,-99.99,,,0.35,,weatherlink.com 1.10,2013-10-12 18:44:00,
2013-10-12 14:04:00,63.3,63.0,29.94,SW,227,6.0,-999.0,99,-99.99,,,0.36,155,weatherlink.com 1.10,2013-10-12 19:04:00,
2013-10-12 14:22:00,63.4,63.0,29.95,WSW,248,8.0,-999.0,99,-99.99,,,0.36,53,weatherlink.com 1.10,2013-10-12 19:22:00,
2013-10-12 14:40:00,63.6,63.0,29.94,SW,230,8.0,-999.0,99,-99.99,,,0.36,65,weatherlink.com 1.10,2013-10-12 19:40:00,
2013-10-12 14:57:00,63.6,-99.9,29.95,WSW,240,6.0,-999.0,-999,-99.99,,,0.36,,weatherlink.com 1.10,2013-10-12 19:57:00,
2013-10-12 15:18:00,63.9,64.0,29.94,SW,233,10.0,-999.0,99,-99.99,,,0.36,,weatherlink.com 1.10,2013-10-12 20:18:00,
2013-10-12 15:36:00,64.6,-99.9,29.94,WSW,247,8.0,-999.0,-999,-99.99,,,0.36,178,weatherlink.com 1.10,2013-10-12 20:36:00,
2013-10-12 15:55:00,65.0,64.0,29.94,WSW,241,12.0,-999.0,96,-99.99,,,0.36,178,weatherlink.com 1.10,2013-10-12 20:55:00,
2013-10-12 16:18:00,66.3,64.0,29.95,WSW,250,8.0,-999.0,92,-99.99,,,0.36,313,weatherlink.com 1.10,2013-10-12 21:18:00,
2013-10-12 16:36:00,67.5,57.0,29.95,WSW,243,5.0,-999.0,69,-99.99,,,0.36,234,weatherlink.com 1.10,2013-10-12 21:36:00,
2013-10-12 16:54:00,67.8,57.0,29.96,WSW,247,10.0,-999.0,68,-99.99,,,0.36,234,weatherlink.com 1.10,2013-10-12 21:54:00,
2013-10-12 17:15:00,67.8,57.0,29.97,North,359,0.0,-999.0,68,-99.99,,,0.36,234,weatherlink.com 1.10,2013-10-12 22:15:00,
2013-10-12 17:33:00,66.7,47.0,29.98,West,263,7.0,-999.0,49,-99.99,,,0.36,95,weatherlink.com 1.10,2013-10-12 22:33:00,
2013-10-12 17:51:00,65.5,46.0,29.99,WSW,246,11.0,-999.0,49,-99.99,,,0.36,44,weatherlink.com 1.10,2013-10-12 22:51:00,
2013-10-12 18:13:00,63.8,46.0,30.02,WNW,284,3.0,-999.0,53,-99.99,,,0.36,12,weatherlink.com 1.10,2013-10-12 23:13:00,
2013-10-12 18:31:00,62.2,45.0,30.02,West,272,2.0,-999.0,53,-99.99,,,0.36,12,weatherlink.com 1.10,2013-10-12 23:31:00,
2013-10-12 18:51:00,60.9,-99.9,30.03,WNW,282,3.0,-999.0,-999,-99.99,,,0.36,0,weatherlink.com 1.10,2013-10-12 23:51:00,
2013-10-12 19:13:00,59.7,46.0,30.05,North,356,2.0,-999.0,61,-99.99,,,0.36,0,weatherlink.com 1.10,2013-10-13 00:13:00,
2013-10-12 19:32:00,59.4,46.0,30.06,NNW,342,5.0,-999.0,61,-99.99,,,0.36,0,weatherlink.com 1.10,2013-10-13 00:32:00,
2013-10-12 19:52:00,59.0,46.0,30.07,NNW,340,3.0,-999.0,61,-99.99,,,0.36,0,weatherlink.com 1.10,2013-10-13 00:52:00,
2013-10-12 20:13:00,58.2,45.0,30.08,NNW,344,4.0,-999.0,61,-99.99,,,0.36,0,weatherlink.com 1.10,2013-10-13 01:13:00,
2013-10-12 20:30:00,57.6,44.0,30.08,NNW,335,7.0,-999.0,61,-99.99,,,0.36,0,weatherlink.com 1.10,2013-10-13 01:30:00,
2013-10-12 20:50:00,57.2,44.0,30.09,NNW,329,4.0,-999.0,61,-99.99,,,0.36,0,weatherlink.com 1.10,2013-10-13 01:50:00,
2013-10-12 21:12:00,56.0,44.0,30.10,NNW,333,4.0,-999.0,65,-99.99,,,0.36,0,weatherlink.com 1.10,2013-10-13 02:12:00,
2013-10-12 21:29:00,55.2,44.0,30.11,NNW,330,1.0,-999.0,66,-99.99,,,0.36,0,weatherlink.com 1.10,2013-10-13 02:29:00,
2013-10-12 21:48:00,54.5,44.0,30.11,NW,319,4.0,-999.0,67,-99.99,,,0.36,0,weatherlink.com 1.10,2013-10-13 02:48:00,
2013-10-12 22:06:00,54.6,44.0,30.12,NNW,339,6.0,-999.0,67,-99.99,,,0.36,0,weatherlink.com 1.10,2013-10-13 03:06:00,
2013-10-12 22:23:00,54.6,43.0,30.13,NW,325,6.0,-999.0,64,-99.99,,,0.36,0,weatherlink.com 1.10,2013-10-13 03:23:00,
2013-10-12 22:39:00,55.1,42.0,30.13,NNW,329,5.0,-999.0,61,-99.99,,,0.36,0,weatherlink.com 1.10,2013-10-13 03:39:00,
2013-10-12 22:56:00,54.8,41.0,30.14,NW,322,3.0,-999.0,60,-99.99,,,0.36,0,weatherlink.com 1.10,2013-10-13 03:56:00,
2013-10-12 23:18:00,53.5,41.0,30.14,NNW,328,2.0,-999.0,63,-99.99,,,0.36,0,weatherlink.com 1.10,2013-10-13 04:18:00,
2013-10-12 23:36:00,52.3,41.0,30.15,NW,318,2.0,-999.0,65,-99.99,,,0.36,0,weatherlink.com 1.10,2013-10-13 04:36:00,
2013-10-12 23:54:00,51.7,40.0,30.16,NNW,328,2.0,-999.0,65,-99.99,,,0.36,0,weatherlink.com 1.10,2013-10-13 04:54:00,